Location: Fairhaven
(34.9340°N, 89.7987°W)
Time: 03:39:45
(UTC+00:00)

Cosmos 2100 Rocket - Pass Details

Date: 13 February 2026
Orbit: 954 x 1001 km, 82.9° (Epoch: 6 March)

Event Time Altitude Azimuth Distance (km) Brightness Sun altitude
Rises 12:19:21 0° 192° (SSW) 3,706 7.0 -6.3°
Reaches altitude 10° 12:21:54 10° 195° (SSW) 2,761 6.4 -5.8°
Maximum altitude 12:28:12 66° 278° (W) 1,081 4.1 -4.6°
Drops below altitude 10° 12:34:32 10° 0° (N) 2,765 6.3 -3.3°
Sets 12:37:05 0° 3° (N) 3,712 6.9 -2.8°
